HST 1 20580U 90037B 25034.93539268 .00009395 00000-0 38141-3 0 9999 2 20580 28.4667 226.6599 0002892 54.4457 305.6407 15.22840268712596 ISS (ZARYA) 1 25544U 98067A 25035.06542019 .00017864 00000-0 32270-3 0 9995 2 25544 51.6385 246.3830 0003595 271.3736 238.6066 15.49782580494510 CXO 1 25867U 99040B 25037.21592970 .00000716 00000-0 00000-0 0 9996 2 25867 46.5701 136.5229 8614898 306.8174 0.4690 0.37805710 15459